Regional Weather Roundup
Issued by NWS Nashville, TN

Home | Current Version | Previous Version | Text Only | Print | Product List | Glossary On
Versions: 1 2 3 4 5 6 7 8 9 10 11 12 13 14 15 16 17 18 19 20 21 22 23 24 25 26 27 28 29 30 31 32 33 34 35 36 37 38 39 40 41 42 43 44 45 46 47 48 49 50
000
ASUS44 KOHX 280310
RWROHX
MIDDLE TENNESSEE HOURLY WEATHER ROUNDUP
NATIONAL WEATHER SERVICE NASHVILLE TN
1000 PM CDT THU AUG 27 2015

NOTE: "FAIR" INDICATES FEW OR NO CLOUDS BELOW 12,000 FEET WITH
NO SIGNIFICANT WEATHER AND/OR OBSTRUCTIONS TO VISIBILITY.

* THESE REPORTS ARE NOT UNDER NWS QUALITY CONTROL AND MAY NOT
  REPORT WEATHER SUCH AS PRECIPITATION AND FOG.


TNZ005>011-023>034-057-059-062>066-078-080-280400
...NORTHERN MIDDLE TENNESSEE...

CITY           SKY/WX    TMP DP  RH WIND       PRES   REMARKS
CLARKSVILLE    CLEAR     67  57  70 E6        30.10R
CROSSVILLE     CLEAR     66  57  72 NE5       30.16S
DICKSON        CLEAR     66  55  68 NE5       30.10R
NASHVILLE      CLEAR     70  56  61 NE6       30.11R
SMYRNA         CLEAR     64  59  84 CALM      30.11R
$$
TNZ056-058-060-061-075>077-079-093>097-280400
...SOUTHERN MIDDLE TENNESSEE...

CITY           SKY/WX    TMP DP  RH WIND       PRES   REMARKS
COLUMBIA       CLEAR     64  64 100 CALM      30.09R
LEWISBURG      CLEAR     62  58  87 CALM      30.10R
MCMINNVILLE    CLEAR     66  63  88 NE5       30.12R
SHELBYVILLE    CLEAR     64  63  94 CALM      30.11S
TULLAHOMA      CLEAR     70  59  68 NE6       30.12R
WINCHESTER     CLEAR     66  63  88 CALM      30.11R
$$


...KEY TO REMARKS...
VSB - VISIBILITY IN MILES
WCI - WIND CHILL INDEX
HX  - HEAT INDEX



USA.gov is the U.S. government's official web portal to all federal, state and local government web resources and services.